Location: Presov
(49.0000°N, 21.2500°E)
Time: 13:21:31
(UTC+01:00)

X-37B - Visible Passes

Search period start: 28 February 2021 00:00
Search period end: 10 March 2021 00:00
Orbit: 383 x 391 km, 45.0° (Epoch: 27 February)

Date Brightness Start Highest point End Pass type
(mag) Time Alt. Az. Time Alt. Az. Time Alt. Az.
28 Feb 2.0 04:48:36 23° SSW 04:48:51 24° SSW 04:51:27 10° SE visible
01 Mar 3.4 03:52:57 13° SE 03:52:57 13° SE 03:53:28 10° SE visible
01 Mar 3.0 05:25:32 10° SW 05:26:38 11° SSW 05:27:43 10° S visible
02 Mar 2.9 04:29:41 14° S 04:29:41 14° S 04:30:40 10° SSE visible
